TimeMDT,TemperatureF,Dew PointF,Humidity,Sea Level PressureIn,VisibilityMPH,Wind Direction,Wind SpeedMPH,Gust SpeedMPH,PrecipitationIn,Events,Conditions,WindDirDegrees,DateUTC
12:52 AM,62.1,50.0,65,29.90,10.0,SSW,9.2,-,N/A,,Clear,210,2013-09-16 06:52:00
1:52 AM,61.0,50.0,67,29.90,10.0,South,8.1,-,N/A,,Clear,180,2013-09-16 07:52:00
2:52 AM,60.1,48.9,67,29.90,10.0,South,6.9,-,N/A,,Clear,180,2013-09-16 08:52:00
3:52 AM,60.1,48.9,67,29.90,10.0,South,10.4,-,N/A,,Clear,190,2013-09-16 09:52:00
4:52 AM,54.0,48.9,83,29.91,10.0,SSW,3.5,-,N/A,,Clear,200,2013-09-16 10:52:00
5:52 AM,53.1,48.9,86,29.92,10.0,SSE,8.1,-,N/A,,Clear,160,2013-09-16 11:52:00
6:52 AM,52.0,48.9,89,29.94,10.0,South,6.9,-,N/A,,Clear,170,2013-09-16 12:52:00
7:52 AM,54.0,48.9,83,29.96,10.0,South,5.8,-,N/A,,Clear,170,2013-09-16 13:52:00
8:52 AM,60.1,51.1,72,29.97,10.0,South,6.9,-,N/A,,Clear,180,2013-09-16 14:52:00
9:52 AM,70.0,50.0,49,29.95,10.0,South,9.2,-,N/A,,Clear,180,2013-09-16 15:52:00
10:52 AM,77.0,45.0,32,29.94,10.0,SW,11.5,-,N/A,,Clear,220,2013-09-16 16:52:00
11:52 AM,80.1,45.0,29,29.93,10.0,SSW,12.7,-,N/A,,Clear,200,2013-09-16 17:52:00
12:52 PM,82.0,46.0,28,29.91,10.0,South,10.4,-,N/A,,Clear,190,2013-09-16 18:52:00
1:52 PM,84.9,39.0,20,29.88,10.0,SSW,8.1,17.3,N/A,,Scattered Clouds,200,2013-09-16 19:52:00
2:52 PM,84.9,39.0,20,29.85,10.0,South,12.7,23.0,N/A,,Partly Cloudy,190,2013-09-16 20:52:00
3:52 PM,86.0,35.1,16,29.82,10.0,SSW,12.7,24.2,N/A,,Partly Cloudy,210,2013-09-16 21:52:00
4:52 PM,86.0,39.9,20,29.83,10.0,SSW,12.7,23.0,N/A,,Clear,210,2013-09-16 22:52:00
5:52 PM,84.9,37.0,18,29.81,10.0,SW,16.1,23.0,N/A,,Clear,230,2013-09-16 23:52:00
6:52 PM,82.9,34.0,17,29.81,10.0,SSW,13.8,-,N/A,,Clear,210,2013-09-17 00:52:00
7:52 PM,75.9,36.0,23,29.82,10.0,SW,9.2,-,N/A,,Clear,220,2013-09-17 01:52:00
8:52 PM,68.0,44.1,42,29.85,10.0,South,3.5,-,N/A,,Clear,180,2013-09-17 02:52:00
9:52 PM,68.0,45.0,43,29.83,10.0,South,8.1,-,N/A,,Clear,180,2013-09-17 03:52:00
10:52 PM,64.0,44.1,48,29.83,10.0,WSW,10.4,-,N/A,,Clear,240,2013-09-17 04:52:00
11:52 PM,66.0,45.0,47,29.82,10.0,SW,8.1,-,N/A,,Clear,230,2013-09-17 05:52:00